Regional Weather Roundup
Issued by NWS Charleston, WV

Home | Current Version | Previous Version | Text Only | Print | Product List | Glossary Off
Versions: 1 2 3 4 5 6 7 8 9 10 11 12 13 14 15 16 17 18 19 20 21 22 23 24 25 26 27 28 29 30 31 32 33 34 35 36 37 38 39 40 41 42 43 44 45 46 47 48 49

000
ASUS41 KRLX 310310
RWRRLX
West Virginia Regional Weather Roundup
National Weather Service Charleston WV
1100 PM EDT THU JUL 30 2015

Note: "fair" indicates few or no clouds below 12,000 feet with no
significant weather and/or obstructions to visibility.

WVZ003-310400-
Northern Panhandle of West Virginia

CITY           SKY/WX    TMP DP  RH WIND       PRES   REMARKS
WHEELING       CLEAR     73  55  53 W5        30.01S
$$

WVZ009-310400-
Northwest West Virginia

CITY           SKY/WX    TMP DP  RH WIND       PRES   REMARKS
PARKERSBURG    CLEAR     71  59  65 W3        30.05R
$$

WVZ006-310400-
Western West Virginia

CITY           SKY/WX    TMP DP  RH WIND       PRES   REMARKS
HUNTINGTON     CLEAR     69  61  75 SW3       30.05R
$$

WVZ015-310400-
West Central West Virginia

CITY           SKY/WX    TMP DP  RH WIND       PRES   REMARKS
CHARLESTON     CLEAR     71  64  78 CALM      30.05R
$$

WVZ022-031-310400-
North Central West Virginia

CITY           SKY/WX    TMP DP  RH WIND       PRES   REMARKS
CLARKSBURG     PTCLDY    70  61  73 CALM      30.03R
MORGANTOWN     PTCLDY    71  59  65 S3        30.03R
$$

WVZ025-035-042-045-310400-
Southern West Virginia

CITY           SKY/WX    TMP DP  RH WIND       PRES   REMARKS
BECKLEY        CLEAR     68  59  73 NW3       30.13R
LOGAN            N/A     73  63  68 CALM      30.06R
BLUEFIELD      PTCLDY    70  59  68 NW3       30.15R
LEWISBURG      CLEAR     68  59  73 CALM      30.11R
$$

WVZ047-310400-
Northern Mountains of West Virginia

CITY           SKY/WX    TMP DP  RH WIND       PRES   REMARKS
ELKINS         CLEAR     64  60  87 CALM      30.07R
$$

WVZ052-310400-
Eastern Panhandle of West Virginia

CITY           SKY/WX    TMP DP  RH WIND       PRES   REMARKS
MARTINSBURG    PTCLDY    73  59  61 W7        29.94R
PETERSBURG     CLEAR    N/A N/A N/A CALM      30.01R
$$



USA.gov is the U.S. government's official web portal to all federal, state and local government web resources and services.